| time (UTC) | temp F | wind direction | speed knots | gust knots | rain 1hr in | rain 24hr in | rain mn in | humidity % | barometer mb |
| 20260509173042 | 52 | 223 | 0.9 | 6.1 | 0.00 | 0.18 | 0.18 | 92 | 1009.9 |
| 20260509171542 | 52 | 182 | 2.6 | 7.0 | 0.00 | 0.18 | 0.18 | 90 | 1009.8 |
| 20260509170037 | 52 | 178 | 1.7 | 7.0 | 0.00 | 0.18 | 0.18 | 92 | 1009.8 |
| 20260509164547 | 52 | 205 | 2.6 | 7.0 | 0.00 | 0.18 | 0.18 | 92 | 1010.0 |
| 20260509163041 | 51 | 236 | 1.7 | 6.1 | 0.01 | 0.18 | 0.18 | 94 | 1010.1 |
| 20260509161538 | 51 | 219 | 0.9 | 6.1 | 0.01 | 0.18 | 0.18 | 96 | 1010.3 |
| 20260509160038 | 50 | 220 | 1.7 | 7.0 | 0.01 | 0.18 | 0.18 | 96 | 1010.4 |
| 20260509154537 | 50 | 213 | 2.6 | 6.1 | 0.01 | 0.18 | 0.18 | 95 | 1010.6 |
| 20260509153036 | 50 | 180 | 1.7 | 6.1 | 0.00 | 0.17 | 0.17 | 96 | 1010.5 |
| 20260509151538 | 49 | 208 | 1.7 | 6.1 | 0.00 | 0.17 | 0.17 | 96 | 1010.7 |
| 20260509150037 | 49 | 202 | 0.9 | 9.6 | 0.00 | 0.17 | 0.17 | 97 | 1010.6 |
| 20260509144539 | 49 | 216 | 1.7 | 7.0 | 0.01 | 0.20 | 0.17 | 97 | 1010.6 |
| 20260509143037 | 49 | 207 | 1.7 | 5.2 | 0.01 | 0.20 | 0.17 | 97 | 1010.8 |
| 20260509141537 | 48 | 191 | 1.7 | 6.1 | 0.02 | 0.20 | 0.17 | 97 | 1010.8 |
| 20260509140037 | 48 | 221 | 1.7 | 6.1 | 0.03 | 0.20 | 0.17 | 98 | 1010.9 |
| 20260509134545 | 48 | 226 | 0.9 | 6.1 | 0.02 | 0.31 | 0.16 | 98 | 1011.0 |
| 20260509133039 | 47 | 206 | 1.7 | 4.3 | 0.03 | 0.31 | 0.16 | 98 | 1011.1 |
| 20260509131548 | 47 | 140 | 0.9 | 3.5 | 0.03 | 0.30 | 0.15 | 98 | 1011.2 |
| 20260509130040 | 47 | 194 | 1.7 | 4.3 | 0.03 | 0.29 | 0.14 | 98 | 1011.3 |
| 20260509124536 | 47 | 228 | 1.7 | 3.5 | 0.04 | 0.29 | 0.14 | 98 | 1011.1 |
| 20260509123043 | 47 | 220 | 0.9 | 5.2 | 0.05 | 0.28 | 0.13 | 98 | 1011.2 |
| 20260509121538 | 47 | 204 | 1.7 | 4.3 | 0.07 | 0.27 | 0.12 | 98 | 1011.4 |
| 20260509120038 | 46 | 213 | 1.7 | 4.3 | 0.09 | 0.26 | 0.11 | 97 | 1011.6 |